• en France
  • Liste des pays
  • À 7 jours
  • Température de l'eau
  • Carte satellitaire
  • Carte météo
  • Widgets météo
  • user-avatar
    Se connecter

    Météo par heure à Kuny

    Ce jour, 21 Septembre, Vendredi

    Heure Température Précipitation Vent Pression Humidité
    00:00 +21°C° 0 mm 3 m/s 753 mmHg 62%
    01:00 +21°C° 0 mm 3 m/s 753 mmHg 64%
    02:00 +20°C° 0 mm 3 m/s 753 mmHg 66%
    03:00 +20°C° 0 mm 3 m/s 752 mmHg 67%
    04:00 +19°C° 0 mm 3 m/s 752 mmHg 69%
    05:00 +20°C° 0 mm 4 m/s 752 mmHg 69%
    06:00 +20°C° 0 mm 4 m/s 752 mmHg 69%
    07:00 +20°C° 0 mm 3 m/s 752 mmHg 69%
    08:00 +22°C° 0 mm 4 m/s 752 mmHg 64%
    09:00 +25°C° 0 mm 5 m/s 751 mmHg 58%
    10:00 +26°C° 0 mm 5 m/s 751 mmHg 53%
    11:00 +27°C° 0 mm 6 m/s 750 mmHg 48%
    12:00 +28°C° 0 mm 6 m/s 750 mmHg 44%
    13:00 +29°C° 0 mm 7 m/s 749 mmHg 39%
    14:00 +29°C° 0 mm 6 m/s 748 mmHg 39%
    15:00 +29°C° 0 mm 6 m/s 748 mmHg 40%
    16:00 +28°C° 0 mm 6 m/s 747 mmHg 40%
    17:00 +27°C° 0 mm 6 m/s 747 mmHg 43%
    18:00 +26°C° 0 mm 6 m/s 747 mmHg 46%
    19:00 +24°C° 0 mm 6 m/s 746 mmHg 50%
    20:00 +23°C° 0.3 mm 7 m/s 747 mmHg 56%
    21:00 +22°C° 0.3 mm 7 m/s 747 mmHg 62%
    22:00 +22°C° 0.3 mm 8 m/s 748 mmHg 68%
    23:00 +20°C° 0.8 mm 7 m/s 749 mmHg 71%

    Demain, 22 Septembre, Samedi

    Heure Température Précipitation Vent Pression Humidité
    00:00 +17°C° 0.8 mm 7 m/s 749 mmHg 73%
    01:00 +15°C° 0.8 mm 7 m/s 750 mmHg 76%
    02:00 +14°C° 0.2 mm 6 m/s 751 mmHg 75%
    03:00 +14°C° 0.2 mm 5 m/s 752 mmHg 73%
    04:00 +14°C° 0.2 mm 4 m/s 753 mmHg 71%
    05:00 +13°C° 0 mm 5 m/s 753 mmHg 68%
    06:00 +13°C° 0 mm 5 m/s 753 mmHg 66%
    07:00 +13°C° 0 mm 5 m/s 754 mmHg 64%
    08:00 +14°C° 0 mm 6 m/s 754 mmHg 60%
    09:00 +15°C° 0 mm 7 m/s 754 mmHg 56%
    10:00 +16°C° 0 mm 8 m/s 754 mmHg 52%
    11:00 +16°C° 0 mm 8 m/s 754 mmHg 50%
    12:00 +16°C° 0 mm 7 m/s 754 mmHg 49%
    13:00 +16°C° 0 mm 7 m/s 754 mmHg 47%
    14:00 +17°C° 0 mm 7 m/s 754 mmHg 47%
    15:00 +17°C° 0 mm 7 m/s 753 mmHg 46%
    16:00 +17°C° 0 mm 6 m/s 753 mmHg 46%
    17:00 +16°C° 0.1 mm 5 m/s 754 mmHg 50%
    18:00 +14°C° 0.1 mm 5 m/s 754 mmHg 55%
    19:00 +13°C° 0.1 mm 4 m/s 754 mmHg 59%
    20:00 +13°C° 0.1 mm 4 m/s 754 mmHg 62%
    21:00 +12°C° 0.1 mm 4 m/s 754 mmHg 64%
    22:00 +12°C° 0.1 mm 4 m/s 754 mmHg 67%
    23:00 +12°C° 0 mm 4 m/s 754 mmHg 67%

    Après-demain, 23 Septembre, Dimanche

    Heure Température Précipitation Vent Pression Humidité
    00:00 +11°C° 0 mm 4 m/s 754 mmHg 67%
    01:00 +11°C° 0 mm 4 m/s 754 mmHg 67%
    02:00 +11°C° 0 mm 4 m/s 754 mmHg 69%
    03:00 +10°C° 0 mm 4 m/s 754 mmHg 71%
    04:00 +10°C° 0 mm 4 m/s 754 mmHg 73%
    05:00 +9°C° 0 mm 5 m/s 754 mmHg 72%
    06:00 +10°C° 0 mm 5 m/s 754 mmHg 72%
    07:00 +10°C° 0 mm 6 m/s 754 mmHg 71%
    08:00 +11°C° 0 mm 6 m/s 754 mmHg 65%
    09:00 +13°C° 0 mm 6 m/s 754 mmHg 58%
    10:00 +15°C° 0 mm 6 m/s 754 mmHg 52%
    11:00 +15°C° 0 mm 6 m/s 754 mmHg 50%
    12:00 +16°C° 0 mm 6 m/s 754 mmHg 47%
    13:00 +17°C° 0 mm 6 m/s 754 mmHg 44%
    14:00 +16°C° 0 mm 5 m/s 753 mmHg 45%
    15:00 +17°C° 0 mm 4 m/s 753 mmHg 46%
    16:00 +17°C° 0 mm 4 m/s 752 mmHg 47%
    17:00 +16°C° 0.1 mm 3 m/s 752 mmHg 51%
    18:00 +14°C° 0.1 mm 3 m/s 751 mmHg 56%
    19:00 +14°C° 0.1 mm 2 m/s 751 mmHg 60%
    20:00 +14°C° 0.7 mm 2 m/s 750 mmHg 68%
    21:00 +13°C° 0.7 mm 2 m/s 749 mmHg 76%
    22:00 +13°C° 0.7 mm 2 m/s 747 mmHg 84%
    23:00 +11°C° 4.5 mm 4 m/s 746 mmHg 86%

    24 Septembre, Lundi

    Heure Température Précipitation Vent Pression Humidité
    00:00 +10°C° 4.5 mm 5 m/s 744 mmHg 89%
    01:00 +10°C° 4.5 mm 6 m/s 743 mmHg 92%
    02:00 +9°C° 3 mm 7 m/s 742 mmHg 90%
    03:00 +9°C° 3 mm 8 m/s 742 mmHg 89%
    04:00 +9°C° 3 mm 8 m/s 741 mmHg 88%
    05:00 +8°C° 1.7 mm 9 m/s 743 mmHg 87%
    06:00 +8°C° 1.7 mm 9 m/s 745 mmHg 86%
    07:00 +8°C° 1.7 mm 9 m/s 746 mmHg 85%
    08:00 +10°C° 0.1 mm 9 m/s 748 mmHg 78%
    09:00 +9°C° 0.1 mm 10 m/s 750 mmHg 71%
    10:00 +11°C° 0.1 mm 10 m/s 751 mmHg 64%
    11:00 +12°C° 0.3 mm 10 m/s 752 mmHg 61%
    12:00 +12°C° 0.3 mm 11 m/s 752 mmHg 58%
    13:00 +12°C° 0.3 mm 11 m/s 753 mmHg 56%
    14:00 +12°C° 0.1 mm 10 m/s 753 mmHg 55%
    15:00 +11°C° 0.1 mm 10 m/s 754 mmHg 54%
    16:00 +11°C° 0.1 mm 9 m/s 754 mmHg 53%
    17:00 +10°C° 0.1 mm 8 m/s 755 mmHg 57%
    18:00 +9°C° 0.1 mm 7 m/s 756 mmHg 60%
    19:00 +8°C° 0.1 mm 6 m/s 757 mmHg 63%
    20:00 +8°C° 0 mm 5 m/s 758 mmHg 65%
    21:00 +8°C° 0 mm 5 m/s 759 mmHg 67%
    22:00 +7°C° 0 mm 5 m/s 759 mmHg 68%
    23:00 +7°C° 0 mm 5 m/s 760 mmHg 69%

    25 Septembre, Mardi

    Heure Température Précipitation Vent Pression Humidité
    00:00 +7°C° 0 mm 5 m/s 760 mmHg 71%
    01:00 +6°C° 0 mm 5 m/s 761 mmHg 72%
    02:00 +6°C° 0 mm 5 m/s 761 mmHg 72%
    03:00 +6°C° 0 mm 5 m/s 762 mmHg 73%
    04:00 +6°C° 0 mm 5 m/s 762 mmHg 73%
    05:00 +6°C° 0 mm 5 m/s 763 mmHg 72%
    06:00 +6°C° 0 mm 5 m/s 763 mmHg 70%
    07:00 +5°C° 0 mm 6 m/s 764 mmHg 69%
    08:00 +8°C° 0 mm 6 m/s 765 mmHg 60%
    09:00 +9°C° 0 mm 6 m/s 765 mmHg 51%
    10:00 +11°C° 0 mm 7 m/s 766 mmHg 42%
    11:00 +11°C° 0 mm 7 m/s 766 mmHg 41%
    12:00 +12°C° 0 mm 7 m/s 766 mmHg 40%
    13:00 +12°C° 0 mm 7 m/s 766 mmHg 40%
    14:00 +12°C° 0 mm 7 m/s 766 mmHg 43%
    15:00 +13°C° 0 mm 6 m/s 765 mmHg 47%
    16:00 +13°C° 0 mm 6 m/s 765 mmHg 50%
    17:00 +12°C° 0 mm 5 m/s 765 mmHg 55%
    18:00 +10°C° 0 mm 5 m/s 765 mmHg 60%
    19:00 +10°C° 0 mm 4 m/s 766 mmHg 64%
    20:00 +10°C° 0 mm 4 m/s 766 mmHg 66%
    21:00 +9°C° 0 mm 5 m/s 766 mmHg 67%
    22:00 +9°C° 0 mm 5 m/s 766 mmHg 69%
    23:00 +9°C° 0 mm 5 m/s 765 mmHg 68%

    26 Septembre, Mercredi

    Heure Température Précipitation Vent Pression Humidité
    00:00 +9°C° 0 mm 5 m/s 765 mmHg 68%
    01:00 +8°C° 0 mm 6 m/s 765 mmHg 67%
    02:00 +8°C° 0 mm 6 m/s 765 mmHg 66%
    03:00 +8°C° 0 mm 6 m/s 764 mmHg 65%
    04:00 +8°C° 0 mm 6 m/s 764 mmHg 64%
    05:00 +8°C° 0 mm 6 m/s 764 mmHg 64%
    06:00 +9°C° 0 mm 7 m/s 764 mmHg 64%
    07:00 +9°C° 0 mm 7 m/s 764 mmHg 64%
    08:00 +10°C° 0 mm 7 m/s 764 mmHg 61%
    09:00 +11°C° 0 mm 7 m/s 764 mmHg 58%
    10:00 +12°C° 0 mm 7 m/s 763 mmHg 55%
    11:00 +12°C° 0 mm 7 m/s 763 mmHg 52%
    12:00 +14°C° 0 mm 7 m/s 763 mmHg 49%
    13:00 +15°C° 0 mm 7 m/s 762 mmHg 46%
    14:00 +15°C° 0 mm 6 m/s 762 mmHg 47%
    15:00 +15°C° 0 mm 6 m/s 762 mmHg 47%
    16:00 +14°C° 0 mm 5 m/s 761 mmHg 47%
    17:00 +13°C° 0 mm 4 m/s 761 mmHg 50%
    18:00 +12°C° 0 mm 4 m/s 761 mmHg 53%
    19:00 +11°C° 0 mm 3 m/s 761 mmHg 56%
    20:00 +11°C° 0 mm 3 m/s 761 mmHg 56%
    21:00 +11°C° 0 mm 3 m/s 761 mmHg 57%
    22:00 +10°C° 0 mm 3 m/s 761 mmHg 57%
    23:00 +10°C° 0 mm 3 m/s 761 mmHg 58%
    Voir plus